NOAA 16 DEB

Satellite information

Favourite Embed

Satellite Type and Status

DEBRISIN ORBIT

Key statistics

Satellite NOAA 16 DEB at a glance.

Uptime

9109

Days in orbit

Revolutions

≈ 14.5

Per day

Orbit

SSO

Sun Synchronous Orbit

Inclination

98.9

Latest

Satellite identification and parameters

Extended collection of information and parameters for NOAA 16 DEB.

Object identification

Identified? True

Debris? True

Object name: NOAA 16 DEB

International designator: 2000-055AH

Object number (NORAD): 41074

Object ID (CCSDS): 41074

Country: UNITED STATES OF AMERICA (US)

Current information (Y/N): Y

RCS size: SMALL

Orbital parameters

Period: 99.629 minutes

Inclination: 98.8787 deg

SMA: 7118.972 km

Apoapsis: 802.072 km

Periapsis: 679.602 km

RAAN: 53.6124 deg

Eccentricy: 0.00860166

Argument of periapsis: 10.8255 deg

Mean anomaly: 349.476 deg

Mean motion: 14.45362727 rev/day

Mean motion (dot): 0.00001881 rev/day2

B* drag term: 0.00052521529 1/REarth

Two-line elements (TLE)

Creation date: Aug. 27, 2025, 8:01 p.m.

Reference frame: TEME

Reference center: EARTH

Epoch: Aug. 27, 2025, 10:44 a.m. UTC

TLE line 0: 0 NOAA 16 DEB

TLE line 1: 1 41074U 00055AH 25239.44754286 .00001881 00000-0 52522-3 0 9994

TLE line 2: 2 41074 98.8787 53.6124 0086017 10.8255 349.4760 14.45362727511099

Live tracking on map

Real-time ground track for satellite NOAA 16 DEB.

In-orbit conjunctions

A list of the most updated potential collisions computed for object NOAA 16 DEB.

Target Orbit TCA Probability of collision Miss distance Type
COSMOS 886 MEO 2025-02-09 00:29:57 0.0001048304 909.0 (m) PAYLOAD
CZ-6A DEB LEO 2025-01-18 07:34:21 0.0001732534 934.0 (m) DEBRIS
METEOR 1-22 DEB LEO 2024-06-11 03:25:25 0.001980367 51.0 (m) DEBRIS

Associated space launch

The NOAA K, L and M POES satellites begin the fifth generation of improved environmental monitoring in support of NOAA missions. The instrument payload has significant improvements and additions/deletions. The instrument changes have effected the spacecraft subsystems and data formats.

NOAA 16 DEB was lifted into orbit during the mission ‘Titan II SLV | NOAA 16’, on board a Titan II SLV space rocket.

The launch took place on Sept. 21, 2000, 10:22 a.m. from Space Launch Complex 4W.

For more information about the launch, click the button.

Launch to space Titan II SLV | NOAA 16
Titan II SLV | NOAA 16

Agency: N/A

Status: Launch Successful

Launch date: Sept. 21, 2000, 10:22 a.m. UTC

Rocket: Titan II SLV

Launch pad: Space Launch Complex 4W

Location: Vandenberg SFB, CA, USA

...

Latest news about this satellite

There are no fresh news available about this satellite. Check back as we update our databases every day.


Newsletter sign-up

Weekly statistics, charts and insights to help you stay on top of the space industry.